Eielson Air Force Base, AK

10:28 AM AKST on February 08, 2016 (GMT -0900)
Eielson Air Force Base

Weather History for PAEI - November, 2012

Change the Weather History Date:

Sunday, November 4, 2012

  Actual Average Record
Temperature  
Mean Temperature 10 °F -  
Max Temperature 15 °F 15 °F 41 °F (1952)
Min Temperature 1 °F 2 °F -35 °F (1975)
Degree Days  
Heating Degree Days 55    
Moisture  
Dew Point 6 °F    
Average Humidity 79    
Maximum Humidity 86    
Minimum Humidity 63    
Precipitation  
Precipitation 0.00 in - - ()
Sea Level Pressure  
Sea Level Pressure 29.73 in    
Wind  
Wind Speed 4 mph (NNW)    
Max Wind Speed 10 mph    
Max Gust Speed -    
Visibility 9 miles    
Events Snow    
Averages and records for this station are not official NWS values.
T = Trace of Precipitation, MM = Missing Value Source: NWS Daily Summary

Daily Weather History Graph

Daily Weather History Graph

Search for Another Location

Airport or City:

Trip Planner

Search our weather history database for the weather conditions in past years. The results will help you decide how hot, cold, wet, or windy it might be!

Date:

Astronomy

Nov. 04, 2012 Rise Set
Actual Time 8:47 AM AKST 4:15 PM AKST
Civil Twilight 7:50 AM AKST 5:11 PM AKST
Nautical Twilight 6:51 AM AKST 6:10 PM AKST
Astronomical Twilight 5:55 AM AKST 7:07 PM AKST
Moon 8:43 PM AKST (11/4) 2:01 PM AKST (11/4)
Length of Visible Light 9h 20m
Length of Day
7h 28m
Waning Gibbous, 70% of the Moon is Illuminated
Nov 4
Waning Gibbous
Nov 6
Last Quarter
Nov 13
New
Nov 20
First Quarter
Nov 28
Full

Hourly Weather History & Observations

Time (AKST) Temp. Windchill Dew Point Humidity Pressure Visibility Wind Dir Wind Speed Gust Speed Precip Events Conditions
12:55 AM 14.5 °F 5.7 °F 3.9 °F 63% 29.72 in 10.0 mi NNE 5.8 mph - N/A   Overcast
1:55 AM 14.0 °F - 5.5 °F 69% 29.72 in 10.0 mi Calm Calm - N/A   Overcast
1:20 AM 14.0 °F - 5.0 °F 67% 29.72 in 10.0 mi Calm Calm - N/A   Overcast
1:21 AM 14.0 °F - 5.0 °F 67% 29.72 in 10.0 mi Calm Calm - N/A   Overcast
1:25 AM 14.0 °F 8.2 °F 5.0 °F 67% 29.71 in 10.0 mi NE 3.5 mph - N/A   Overcast
1:33 AM 14.0 °F 5.1 °F 5.0 °F 67% 29.71 in 10.0 mi NNE 5.8 mph - N/A   Overcast
1:55 AM 15.1 °F 5.2 °F 4.6 °F 63% 29.71 in 10.0 mi NNE 6.9 mph - N/A   Overcast
2:55 AM 14.0 °F 5.1 °F 5.2 °F 68% 29.70 in 10.0 mi NNE 5.8 mph - N/A   Overcast
3:55 AM 13.3 °F 7.3 °F 6.1 °F 73% 29.70 in 10.0 mi NNE 3.5 mph - N/A   Overcast
4:55 AM 12.6 °F - 7.5 °F 80% 29.69 in 10.0 mi Calm Calm - N/A   Overcast
5:55 AM 15.3 °F 7.9 °F 5.5 °F 65% 29.69 in 10.0 mi NE 4.6 mph - N/A   Overcast
6:55 AM 14.2 °F 4.1 °F 7.9 °F 76% 29.69 in 10.0 mi North 6.9 mph - N/A   Overcast
7:55 AM 14.2 °F 6.7 °F 7.3 °F 74% 29.70 in 10.0 mi North 4.6 mph - 0.00 in   Overcast
8:36 AM 10.4 °F 2.2 °F 6.8 °F 85% 29.70 in 10.0 mi SSE 4.6 mph - N/A   Overcast
8:54 AM 10.4 °F - 6.8 °F 85% 29.70 in 6.0 mi Calm Calm - N/A Snow Light Snow
9:24 AM 10.4 °F - 6.8 °F 85% 29.70 in 7.0 mi Calm Calm - N/A Snow Light Snow
9:55 AM 10.0 °F - 6.3 °F 85% 29.70 in 6.0 mi Calm Calm - 0.00 in Snow Light Snow
10:41 AM 10.4 °F - 6.8 °F 85% 29.70 in 5.0 mi Calm Calm - N/A Snow Light Snow
10:55 AM 10.9 °F - 7.3 °F 85% 29.70 in 4.0 mi Calm Calm - 0.00 in Snow Light Snow
11:55 AM 12.0 °F - 8.1 °F 84% 29.71 in 5.0 mi Calm Calm - 0.00 in Snow Light Snow
12:07 PM 12.2 °F - 8.6 °F 85% 29.71 in 9.0 mi Calm Calm - N/A   Overcast
3:00 PM 14.0 °F 2.0 °F 6.8 °F 73% 29.70 in 10.0 mi North 9.2 mph - N/A Snow Light Snow
3:55 PM 13.6 °F 0.7 °F 6.8 °F 74% 29.71 in 10.0 mi North 10.4 mph - 0.00 in   Overcast
4:20 PM 14.0 °F 2.9 °F 6.8 °F 73% 29.72 in 10.0 mi NNW 8.1 mph - N/A Snow Light Snow
4:55 PM 12.7 °F 3.6 °F 7.5 °F 80% 29.73 in 10.0 mi NNW 5.8 mph - 0.00 in Snow Light Snow
5:55 PM 12.2 °F 2.9 °F 8.2 °F 84% 29.74 in 6.0 mi WNW 5.8 mph - 0.00 in Snow Light Snow
6:15 PM 12.2 °F 4.3 °F 8.6 °F 85% 29.75 in 7.0 mi WNW 4.6 mph - N/A Snow Light Snow
6:44 PM 10.4 °F 2.2 °F 6.8 °F 85% 29.75 in 7.0 mi WNW 4.6 mph - N/A Snow Light Snow
6:45 PM 10.4 °F 2.2 °F 6.8 °F 85% 29.75 in 7.0 mi WNW 4.6 mph - N/A   Overcast
6:55 PM 10.4 °F 4.0 °F 7.0 °F 86% 29.76 in 10.0 mi WNW 3.5 mph - 0.00 in   Overcast
7:18 PM 10.4 °F 0.8 °F 6.8 °F 85% 29.76 in 10.0 mi WNW 5.8 mph - N/A   Overcast
7:20 PM 10.4 °F 0.8 °F 6.8 °F 85% 29.76 in 10.0 mi WNW 5.8 mph - N/A   Overcast
7:24 PM 10.4 °F 0.8 °F 6.8 °F 85% 29.77 in 10.0 mi WNW 5.8 mph - N/A   Overcast
7:44 PM 8.6 °F 2.0 °F 5.0 °F 85% 29.77 in 10.0 mi WNW 3.5 mph - N/A   Overcast
7:55 PM 8.4 °F -1.6 °F 5.0 °F 86% 29.77 in 10.0 mi WNW 5.8 mph - N/A   Mostly Cloudy
8:08 PM 8.6 °F 0.1 °F 5.0 °F 85% 29.78 in 10.0 mi WNW 4.6 mph - N/A   Mostly Cloudy
8:14 PM 8.6 °F 0.1 °F 5.0 °F 85% 29.78 in 10.0 mi NW 4.6 mph - N/A   Overcast
8:25 PM 8.6 °F 2.0 °F 5.0 °F 85% 29.78 in 10.0 mi WNW 3.5 mph - N/A Snow Light Snow
8:55 PM 5.0 °F - 1.4 °F 85% 29.79 in 6.0 mi Calm Calm - 0.00 in Snow Light Snow
9:55 PM 5.7 °F - 1.9 °F 84% 29.81 in 5.0 mi Calm Calm - 0.00 in Snow Light Snow
10:55 PM 1.0 °F -6.7 °F -3.3 °F 82% 29.83 in 3.0 mi SSE 3.5 mph - 0.00 in Snow Light Snow